Location: B�hl
(48.6968°N, 8.1352°E)
Time: 00:00:58
(UTC+00:00)

Terra - Pass Details

Date: 08 March 2021
Orbit: 701 x 703 km, 98.2° (Epoch: 20 April)

Event Time Altitude Azimuth Distance (km) Brightness Sun altitude
Exits shadow 21:39:32 16° 338° (NNW) 1,806 4.5 -39.1°
Drops below altitude 10° 21:40:30 10° 341° (NNW) 2,183 5.0 -39.2°
Sets 21:42:47 0° 344° (NNW) 3,106 5.9 -39.5°
